| time (UTC) | temp F | wind direction | speed knots | gust knots | rain 1hr in | rain 24hr in | rain mn in | humidity % | barometer mb |
| 20260505065514 | 57 | 0 | 0.9 | 1.7 | 0.00 | 0.01 | 0.01 | 83 | 1012.2 |
| 20260505065414 | 57 | 244 | 1.7 | 3.5 | 0.00 | 0.01 | 0.01 | 83 | 1012.2 |
| 20260505065314 | 57 | 211 | 1.7 | 3.5 | 0.00 | 0.01 | 0.01 | 83 | 1012.2 |
| 20260505065114 | 57 | 0 | 0.0 | 0.0 | 0.00 | 0.01 | 0.01 | 83 | 1012.2 |
| 20260505065014 | 57 | 0 | 0.0 | 0.9 | 0.00 | 0.01 | 0.01 | 83 | 1012.2 |
| 20260505064715 | 58 | 218 | 0.0 | 1.7 | 0.00 | 0.01 | 0.01 | 83 | 1012.2 |
| 20260505064514 | 58 | 0 | 0.0 | 0.0 | 0.00 | 0.01 | 0.01 | 82 | 1012.2 |
| 20260505064414 | 58 | 0 | 0.0 | 0.0 | 0.00 | 0.01 | 0.01 | 82 | 1012.1 |
| 20260505064314 | 58 | 0 | 0.0 | 0.9 | 0.00 | 0.01 | 0.01 | 82 | 1012.1 |
| 20260505064214 | 58 | 256 | 0.0 | 0.9 | 0.00 | 0.01 | 0.01 | 82 | 1012.1 |
| 20260505064114 | 58 | 228 | 0.0 | 0.9 | 0.00 | 0.01 | 0.01 | 82 | 1012.1 |
| 20260505064014 | 58 | 0 | 0.0 | 0.0 | 0.00 | 0.01 | 0.01 | 82 | 1012.0 |
| 20260505063914 | 58 | 0 | 0.0 | 0.0 | 0.00 | 0.01 | 0.01 | 82 | 1012.0 |
| 20260505063814 | 58 | 0 | 0.9 | 1.7 | 0.00 | 0.01 | 0.01 | 82 | 1012.0 |
| 20260505063714 | 58 | 240 | 0.0 | 1.7 | 0.00 | 0.01 | 0.01 | 82 | 1012.0 |
| 20260505063615 | 58 | 292 | 0.0 | 1.7 | 0.00 | 0.01 | 0.01 | 82 | 1012.0 |
| 20260505063514 | 58 | 0 | 0.0 | 0.0 | 0.00 | 0.01 | 0.01 | 82 | 1012.0 |
| 20260505063415 | 58 | 272 | 0.9 | 1.7 | 0.00 | 0.01 | 0.01 | 82 | 1012.0 |
| 20260505063315 | 58 | 209 | 1.7 | 2.6 | 0.00 | 0.01 | 0.01 | 81 | 1012.0 |
| 20260505063214 | 58 | 0 | 0.9 | 1.7 | 0.00 | 0.01 | 0.01 | 81 | 1012.0 |
| 20260505063115 | 58 | 198 | 1.7 | 1.7 | 0.00 | 0.01 | 0.01 | 81 | 1012.0 |
| 20260505063015 | 58 | 205 | 1.7 | 1.7 | 0.00 | 0.01 | 0.01 | 81 | 1012.0 |
| 20260505062914 | 58 | 0 | 0.0 | 0.0 | 0.00 | 0.01 | 0.01 | 81 | 1012.0 |
| 20260505062815 | 58 | 0 | 0.0 | 0.0 | 0.00 | 0.01 | 0.01 | 81 | 1011.9 |
| 20260505062714 | 58 | 0 | 0.0 | 0.9 | 0.00 | 0.01 | 0.01 | 81 | 1011.9 |
| 20260505062615 | 58 | 207 | 0.0 | 1.7 | 0.00 | 0.01 | 0.01 | 81 | 1011.9 |
| 20260505062515 | 58 | 190 | 0.0 | 1.7 | 0.00 | 0.01 | 0.01 | 81 | 1011.9 |
| 20260505062414 | 58 | 0 | 1.7 | 2.6 | 0.00 | 0.01 | 0.01 | 81 | 1011.9 |
| 20260505062315 | 58 | 213 | 0.0 | 1.7 | 0.00 | 0.01 | 0.01 | 81 | 1011.9 |
| 20260505062214 | 58 | 0 | 0.0 | 0.0 | 0.00 | 0.01 | 0.01 | 80 | 1011.9 |
| 20260505062114 | 59 | 0 | 0.0 | 0.0 | 0.00 | 0.01 | 0.01 | 80 | 1011.9 |
| 20260505062014 | 59 | 0 | 0.0 | 0.0 | 0.00 | 0.01 | 0.01 | 80 | 1011.9 |
| 20260505061914 | 59 | 262 | 0.0 | 0.0 | 0.00 | 0.01 | 0.01 | 80 | 1011.8 |
| 20260505061815 | 59 | 242 | 0.0 | 1.7 | 0.00 | 0.01 | 0.01 | 80 | 1011.8 |
| 20260505061715 | 59 | 249 | 0.9 | 1.7 | 0.00 | 0.01 | 0.01 | 80 | 1011.8 |
| 20260505061615 | 59 | 0 | 0.0 | 1.7 | 0.00 | 0.01 | 0.01 | 80 | 1011.8 |
| 20260505061515 | 59 | 217 | 0.0 | 1.7 | 0.00 | 0.01 | 0.01 | 80 | 1011.8 |
| 20260505061414 | 59 | 0 | 0.0 | 1.7 | 0.00 | 0.01 | 0.01 | 80 | 1011.7 |
| 20260505061315 | 59 | 245 | 0.0 | 1.7 | 0.00 | 0.01 | 0.01 | 80 | 1011.7 |
| 20260505061215 | 59 | 261 | 0.0 | 0.9 | 0.00 | 0.01 | 0.01 | 79 | 1011.7 |
| 20260505061115 | 59 | 0 | 0.9 | 0.9 | 0.00 | 0.01 | 0.01 | 79 | 1011.7 |
| 20260505061015 | 59 | 0 | 0.0 | 0.9 | 0.00 | 0.01 | 0.01 | 79 | 1011.7 |
| 20260505060915 | 59 | 292 | 0.0 | 1.7 | 0.00 | 0.01 | 0.01 | 79 | 1011.7 |
| 20260505060815 | 59 | 285 | 0.9 | 1.7 | 0.00 | 0.01 | 0.01 | 79 | 1011.7 |
| 20260505060715 | 59 | 218 | 1.7 | 1.7 | 0.00 | 0.01 | 0.01 | 79 | 1011.7 |
| 20260505060615 | 59 | 211 | 0.9 | 1.7 | 0.00 | 0.01 | 0.01 | 79 | 1011.7 |
| 20260505060516 | 59 | 210 | 0.9 | 1.7 | 0.00 | 0.01 | 0.01 | 79 | 1011.7 |
| 20260505060415 | 59 | 218 | 0.9 | 1.7 | 0.00 | 0.01 | 0.01 | 79 | 1011.7 |
| 20260505060215 | 59 | 0 | 0.0 | 1.7 | 0.00 | 0.01 | 0.01 | 78 | 1011.7 |
| 20260505060115 | 59 | 308 | 0.9 | 1.7 | 0.00 | 0.01 | 0.01 | 78 | 1011.7 |
| 20260505060015 | 60 | 0 | 0.9 | 1.7 | 0.00 | 0.01 | 0.01 | 78 | 1011.7 |
| 20260505055915 | 60 | 0 | 0.0 | 0.0 | 0.00 | 0.01 | 0.01 | 78 | 1011.7 |
| 20260505055815 | 60 | 0 | 0.0 | 0.0 | 0.00 | 0.01 | 0.01 | 78 | 1011.7 |
| 20260505055715 | 60 | 0 | 0.0 | 1.7 | 0.00 | 0.01 | 0.01 | 78 | 1011.7 |
| 20260505055615 | 60 | 216 | 0.9 | 1.7 | 0.00 | 0.01 | 0.01 | 78 | 1011.7 |
| 20260505055515 | 60 | 0 | 0.0 | 0.0 | 0.00 | 0.01 | 0.01 | 78 | 1011.7 |
| 20260505055415 | 60 | 0 | 0.0 | 1.7 | 0.00 | 0.01 | 0.01 | 78 | 1011.7 |
| 20260505055315 | 60 | 256 | 0.9 | 2.6 | 0.00 | 0.01 | 0.01 | 77 | 1011.6 |
| 20260505055216 | 60 | 244 | 0.0 | 0.9 | 0.00 | 0.01 | 0.01 | 77 | 1011.6 |
| 20260505055115 | 60 | 226 | 1.7 | 2.6 | 0.00 | 0.01 | 0.01 | 77 | 1011.6 |
| 20260505055015 | 60 | 236 | 1.7 | 2.6 | 0.00 | 0.01 | 0.01 | 77 | 1011.6 |
| 20260505054916 | 60 | 0 | 0.9 | 2.6 | 0.00 | 0.01 | 0.01 | 77 | 1011.6 |
| 20260505054816 | 60 | 253 | 0.9 | 1.7 | 0.00 | 0.01 | 0.01 | 77 | 1011.6 |
| 20260505054616 | 60 | 222 | 0.9 | 1.7 | 0.00 | 0.01 | 0.01 | 76 | 1011.6 |
| 20260505054515 | 61 | 241 | 0.9 | 1.7 | 0.00 | 0.01 | 0.01 | 76 | 1011.6 |
| 20260505054215 | 61 | 0 | 0.0 | 0.0 | 0.00 | 0.01 | 0.01 | 76 | 1011.6 |
| 20260505053915 | 61 | 254 | 0.9 | 1.7 | 0.00 | 0.01 | 0.01 | 76 | 1011.6 |
| 20260505053815 | 61 | 0 | 0.9 | 1.7 | 0.00 | 0.01 | 0.01 | 76 | 1011.6 |
| 20260505053715 | 61 | 0 | 0.0 | 0.9 | 0.00 | 0.01 | 0.01 | 76 | 1011.6 |
| 20260505053416 | 61 | 210 | 1.7 | 2.6 | 0.00 | 0.01 | 0.01 | 75 | 1011.6 |
| 20260505053316 | 61 | 222 | 1.7 | 2.6 | 0.00 | 0.01 | 0.01 | 75 | 1011.6 |
| 20260505053116 | 61 | 220 | 0.9 | 2.6 | 0.00 | 0.01 | 0.01 | 75 | 1011.6 |
| 20260505053016 | 61 | 238 | 0.9 | 1.7 | 0.00 | 0.01 | 0.01 | 75 | 1011.6 |
| 20260505052916 | 61 | 241 | 0.9 | 1.7 | 0.00 | 0.01 | 0.01 | 75 | 1011.6 |
| 20260505052816 | 62 | 230 | 0.0 | 1.7 | 0.00 | 0.01 | 0.01 | 75 | 1011.5 |
| 20260505052716 | 62 | 0 | 0.9 | 1.7 | 0.00 | 0.01 | 0.01 | 75 | 1011.5 |
| 20260505052616 | 62 | 278 | 0.0 | 0.9 | 0.00 | 0.01 | 0.01 | 74 | 1011.5 |
| 20260505052315 | 62 | 0 | 0.0 | 0.0 | 0.00 | 0.01 | 0.01 | 74 | 1011.4 |
| 20260505052016 | 62 | 240 | 0.9 | 1.7 | 0.00 | 0.01 | 0.01 | 74 | 1011.4 |
| 20260505051916 | 62 | 255 | 1.7 | 2.6 | 0.00 | 0.01 | 0.01 | 74 | 1011.4 |
| 20260505051616 | 62 | 226 | 0.9 | 1.7 | 0.00 | 0.01 | 0.01 | 74 | 1011.4 |
| 20260505051516 | 62 | 248 | 0.9 | 2.6 | 0.00 | 0.01 | 0.01 | 74 | 1011.4 |
| 20260505051416 | 62 | 223 | 0.0 | 1.7 | 0.00 | 0.01 | 0.01 | 74 | 1011.4 |
| 20260505051316 | 62 | 222 | 0.9 | 1.7 | 0.00 | 0.01 | 0.01 | 74 | 1011.3 |
| 20260505051216 | 62 | 0 | 0.0 | 1.7 | 0.00 | 0.01 | 0.01 | 73 | 1011.3 |
| 20260505051116 | 63 | 220 | 2.6 | 3.5 | 0.00 | 0.01 | 0.01 | 73 | 1011.3 |
| 20260505050816 | 63 | 237 | 0.9 | 1.7 | 0.00 | 0.01 | 0.01 | 73 | 1011.2 |
| 20260505050716 | 63 | 233 | 2.6 | 3.5 | 0.00 | 0.01 | 0.01 | 73 | 1011.2 |
| 20260505050416 | 63 | 297 | 0.9 | 1.7 | 0.00 | 0.01 | 0.01 | 73 | 1011.2 |
| 20260505041717 | 66 | 0 | 0.0 | 1.7 | 0.00 | 0.01 | 0.01 | 70 | 1010.7 |
| 20260505041617 | 66 | 257 | 0.9 | 1.7 | 0.00 | 0.01 | 0.01 | 69 | 1010.7 |
| 20260505041517 | 66 | 261 | 0.0 | 1.7 | 0.00 | 0.01 | 0.01 | 69 | 1010.7 |
| 20260505041317 | 66 | 212 | 2.6 | 3.5 | 0.00 | 0.01 | 0.01 | 69 | 1010.6 |
| 20260505041217 | 66 | 213 | 2.6 | 3.5 | 0.00 | 0.01 | 0.01 | 69 | 1010.6 |
| 20260505041117 | 66 | 221 | 2.6 | 4.3 | 0.00 | 0.01 | 0.01 | 69 | 1010.6 |
| 20260505041017 | 66 | 221 | 2.6 | 3.5 | 0.00 | 0.01 | 0.01 | 69 | 1010.6 |
| 20260505040917 | 66 | 214 | 2.6 | 3.5 | 0.00 | 0.01 | 0.01 | 69 | 1010.6 |
| 20260505040817 | 66 | 206 | 0.0 | 1.7 | 0.00 | 0.01 | 0.01 | 69 | 1010.6 |
| 20260505040717 | 66 | 221 | 1.7 | 3.5 | 0.00 | 0.01 | 0.01 | 69 | 1010.6 |
| 20260505040617 | 66 | 200 | 0.9 | 2.6 | 0.00 | 0.01 | 0.01 | 69 | 1010.6 |
| 20260505040517 | 66 | 0 | 0.0 | 0.9 | 0.00 | 0.01 | 0.01 | 69 | 1010.5 |
| 20260505040417 | 66 | 0 | 0.0 | 0.9 | 0.00 | 0.01 | 0.01 | 69 | 1010.5 |
| 20260505040317 | 66 | 260 | 0.9 | 2.6 | 0.00 | 0.01 | 0.01 | 68 | 1010.5 |
| 20260505040217 | 66 | 269 | 0.9 | 1.7 | 0.00 | 0.01 | 0.01 | 68 | 1010.5 |
| 20260505040117 | 67 | 247 | 0.0 | 1.7 | 0.00 | 0.01 | 0.01 | 68 | 1010.4 |
| 20260505040018 | 67 | 221 | 0.0 | 1.7 | 0.00 | 0.01 | 0.01 | 68 | 1010.4 |
| 20260505035917 | 67 | 220 | 0.9 | 1.7 | 0.00 | 0.01 | 0.01 | 68 | 1010.4 |
| 20260505035717 | 67 | 256 | 0.0 | 1.7 | 0.00 | 0.01 | 0.01 | 68 | 1010.4 |
| 20260505035517 | 67 | 0 | 0.9 | 1.7 | 0.00 | 0.01 | 0.01 | 67 | 1010.4 |
| 20260505035418 | 67 | 220 | 0.9 | 1.7 | 0.00 | 0.01 | 0.01 | 67 | 1010.3 |
| 20260505035318 | 67 | 251 | 0.0 | 0.9 | 0.00 | 0.01 | 0.01 | 67 | 1010.3 |
| 20260505035017 | 67 | 0 | 0.0 | 0.0 | 0.00 | 0.01 | 0.01 | 67 | 1010.3 |
| 20260505034917 | 67 | 0 | 0.0 | 0.0 | 0.00 | 0.01 | 0.01 | 67 | 1010.3 |
| 20260505034817 | 67 | 0 | 0.0 | 0.0 | 0.01 | 0.01 | 0.01 | 66 | 1010.3 |
| 20260505034517 | 68 | 253 | 1.7 | 3.5 | 0.01 | 0.01 | 0.01 | 66 | 1010.2 |
| 20260505034417 | 68 | 226 | 0.0 | 1.7 | 0.01 | 0.01 | 0.01 | 66 | 1010.2 |
| 20260505034317 | 68 | 0 | 0.0 | 0.9 | 0.01 | 0.01 | 0.01 | 66 | 1010.2 |
| 20260505034217 | 68 | 225 | 1.7 | 2.6 | 0.01 | 0.01 | 0.01 | 66 | 1010.2 |
| 20260505034118 | 68 | 213 | 0.9 | 2.6 | 0.01 | 0.01 | 0.01 | 65 | 1010.1 |
| 20260505034017 | 68 | 218 | 1.7 | 2.6 | 0.01 | 0.01 | 0.01 | 65 | 1010.1 |
| 20260505033917 | 68 | 268 | 2.6 | 2.6 | 0.01 | 0.01 | 0.01 | 65 | 1010.1 |
| 20260505033618 | 68 | 210 | 2.6 | 2.6 | 0.01 | 0.01 | 0.01 | 65 | 1010.1 |
| 20260505033517 | 68 | 0 | 1.7 | 3.5 | 0.01 | 0.01 | 0.01 | 64 | 1010.1 |
| 20260505033418 | 69 | 262 | 0.0 | 1.7 | 0.01 | 0.01 | 0.01 | 64 | 1010.1 |
| 20260505033317 | 69 | 0 | 0.0 | 1.7 | 0.01 | 0.01 | 0.01 | 64 | 1010.1 |
| 20260505033218 | 69 | 277 | 0.9 | 2.6 | 0.01 | 0.01 | 0.01 | 64 | 1010.0 |
| 20260505033118 | 69 | 218 | 0.9 | 2.6 | 0.01 | 0.01 | 0.01 | 64 | 1010.0 |
| 20260505033018 | 69 | 210 | 0.9 | 1.7 | 0.01 | 0.01 | 0.01 | 64 | 1010.0 |
| 20260505032918 | 69 | 252 | 0.9 | 2.6 | 0.01 | 0.01 | 0.01 | 63 | 1009.9 |
| 20260505032818 | 69 | 238 | 2.6 | 4.3 | 0.01 | 0.01 | 0.01 | 63 | 1009.9 |
| 20260505032718 | 69 | 204 | 2.6 | 4.3 | 0.01 | 0.01 | 0.01 | 63 | 1009.9 |
| 20260505032617 | 69 | 0 | 0.9 | 2.6 | 0.01 | 0.01 | 0.01 | 63 | 1009.9 |
| 20260505032518 | 69 | 233 | 1.7 | 3.5 | 0.01 | 0.01 | 0.01 | 63 | 1009.8 |
| 20260505032318 | 70 | 204 | 1.7 | 3.5 | 0.01 | 0.01 | 0.01 | 63 | 1009.8 |
| 20260505032218 | 70 | 212 | 4.3 | 6.1 | 0.01 | 0.01 | 0.01 | 62 | 1009.8 |
| 20260505031918 | 70 | 0 | 0.0 | 0.0 | 0.01 | 0.01 | 0.01 | 62 | 1009.7 |
| 20260505031618 | 70 | 230 | 0.9 | 1.7 | 0.01 | 0.01 | 0.01 | 62 | 1009.7 |
| 20260505031218 | 70 | 318 | 0.9 | 2.6 | 0.01 | 0.01 | 0.01 | 61 | 1009.7 |
| 20260505031118 | 71 | 235 | 0.9 | 2.6 | 0.01 | 0.01 | 0.01 | 61 | 1009.7 |
| 20260505030818 | 71 | 257 | 1.7 | 2.6 | 0.01 | 0.01 | 0.01 | 60 | 1009.6 |
| 20260505030718 | 71 | 242 | 1.7 | 2.6 | 0.01 | 0.01 | 0.01 | 60 | 1009.6 |
| 20260505030618 | 71 | 237 | 0.9 | 2.6 | 0.01 | 0.01 | 0.01 | 60 | 1009.6 |
| 20260505030518 | 71 | 244 | 0.9 | 2.6 | 0.01 | 0.01 | 0.01 | 60 | 1009.6 |
| 20260505030218 | 72 | 262 | 1.7 | 3.5 | 0.01 | 0.01 | 0.01 | 60 | 1009.6 |
| 20260505030118 | 72 | 212 | 1.7 | 2.6 | 0.01 | 0.01 | 0.01 | 60 | 1009.5 |
| 20260505030018 | 72 | 236 | 2.6 | 3.5 | 0.01 | 0.01 | 0.01 | 60 | 1009.5 |
| 20260505025918 | 72 | 251 | 0.9 | 2.6 | 0.01 | 0.01 | 0.01 | 60 | 1009.5 |
| 20260505025818 | 72 | 233 | 0.9 | 2.6 | 0.01 | 0.01 | 0.01 | 60 | 1009.5 |
| 20260505025519 | 72 | 212 | 2.6 | 5.2 | 0.01 | 0.01 | 0.01 | 59 | 1009.5 |
| 20260505025419 | 73 | 209 | 3.5 | 4.3 | 0.01 | 0.01 | 0.01 | 59 | 1009.4 |
| 20260505025318 | 73 | 229 | 2.6 | 4.3 | 0.01 | 0.01 | 0.01 | 59 | 1009.4 |
| 20260505025218 | 73 | 208 | 2.6 | 3.5 | 0.01 | 0.01 | 0.01 | 59 | 1009.4 |
| 20260505025118 | 73 | 235 | 1.7 | 4.3 | 0.01 | 0.01 | 0.01 | 59 | 1009.4 |
| 20260505025018 | 73 | 211 | 0.9 | 2.6 | 0.01 | 0.01 | 0.01 | 59 | 1009.4 |
| 20260505024919 | 73 | 236 | 0.9 | 2.6 | 0.00 | 0.00 | 0.01 | 59 | 1009.4 |
| 20260505024718 | 73 | 0 | 0.0 | 2.6 | 0.00 | 0.00 | 0.00 | 58 | 1009.4 |
| 20260505024419 | 74 | 264 | 1.7 | 2.6 | 0.00 | 0.00 | 0.00 | 58 | 1009.4 |
| 20260505024318 | 74 | 264 | 1.7 | 4.3 | 0.00 | 0.00 | 0.00 | 57 | 1009.4 |
| 20260505024219 | 74 | 266 | 0.9 | 2.6 | 0.00 | 0.00 | 0.00 | 57 | 1009.4 |
| 20260505024119 | 74 | 312 | 1.7 | 2.6 | 0.00 | 0.00 | 0.00 | 57 | 1009.4 |
| 20260505023919 | 74 | 258 | 0.9 | 1.7 | 0.00 | 0.00 | 0.00 | 56 | 1009.3 |
| 20260505023818 | 74 | 0 | 0.0 | 0.9 | 0.00 | 0.00 | 0.00 | 56 | 1009.3 |
| 20260505023719 | 74 | 273 | 0.9 | 2.6 | 0.00 | 0.00 | 0.00 | 56 | 1009.3 |
| 20260505023618 | 74 | 0 | 0.0 | 1.7 | 0.00 | 0.00 | 0.00 | 56 | 1009.3 |
| 20260505023518 | 74 | 245 | 1.7 | 4.3 | 0.00 | 0.00 | 0.00 | 55 | 1009.3 |
| 20260505023419 | 74 | 227 | 1.7 | 4.3 | 0.00 | 0.00 | 0.00 | 55 | 1009.3 |
| 20260505023318 | 74 | 230 | 2.6 | 5.2 | 0.00 | 0.00 | 0.00 | 55 | 1009.3 |
| 20260505023219 | 74 | 195 | 2.6 | 5.2 | 0.00 | 0.00 | 0.00 | 55 | 1009.2 |
| 20260505023119 | 74 | 218 | 1.7 | 2.6 | 0.00 | 0.00 | 0.00 | 55 | 1009.3 |
| 20260505023018 | 75 | 236 | 1.7 | 3.5 | 0.00 | 0.00 | 0.00 | 55 | 1009.3 |
| 20260505022919 | 75 | 245 | 2.6 | 4.3 | 0.00 | 0.00 | 0.00 | 54 | 1009.3 |
| 20260505022819 | 75 | 222 | 0.9 | 3.5 | 0.00 | 0.00 | 0.00 | 55 | 1009.3 |
| 20260505022718 | 75 | 10 | 0.9 | 2.6 | 0.00 | 0.00 | 0.00 | 54 | 1009.3 |
| 20260505022619 | 75 | 229 | 1.7 | 4.3 | 0.00 | 0.00 | 0.00 | 54 | 1009.2 |
| 20260505022518 | 75 | 253 | 2.6 | 4.3 | 0.00 | 0.00 | 0.00 | 54 | 1009.2 |
| 20260505022419 | 75 | 225 | 2.6 | 4.3 | 0.00 | 0.00 | 0.00 | 54 | 1009.3 |
| 20260505022318 | 75 | 252 | 0.9 | 2.6 | 0.00 | 0.00 | 0.00 | 53 | 1009.3 |
| 20260505022218 | 75 | 259 | 0.9 | 2.6 | 0.00 | 0.00 | 0.00 | 53 | 1009.3 |
| 20260505022119 | 75 | 231 | 0.0 | 0.9 | 0.00 | 0.00 | 0.00 | 53 | 1009.3 |
| 20260505022019 | 75 | 244 | 0.9 | 1.7 | 0.00 | 0.00 | 0.00 | 53 | 1009.3 |
| 20260505021619 | 76 | 225 | 2.6 | 4.3 | 0.00 | 0.00 | 0.00 | 53 | 1009.3 |
| 20260505021519 | 76 | 222 | 0.9 | 1.7 | 0.00 | 0.00 | 0.00 | 53 | 1009.3 |
| 20260505021418 | 76 | 278 | 0.9 | 2.6 | 0.00 | 0.00 | 0.00 | 53 | 1009.3 |
| 20260505021319 | 76 | 8 | 0.9 | 1.7 | 0.00 | 0.00 | 0.00 | 53 | 1009.3 |
| 20260505021219 | 76 | 349 | 0.9 | 2.6 | 0.00 | 0.00 | 0.00 | 52 | 1009.3 |
| 20260505021119 | 76 | 265 | 0.9 | 1.7 | 0.00 | 0.00 | 0.00 | 52 | 1009.3 |
| 20260505020819 | 76 | 248 | 0.9 | 2.6 | 0.00 | 0.00 | 0.00 | 52 | 1009.3 |
| 20260505020719 | 76 | 281 | 0.9 | 1.7 | 0.00 | 0.00 | 0.00 | 51 | 1009.3 |
| 20260505020619 | 77 | 246 | 2.6 | 4.3 | 0.00 | 0.00 | 0.00 | 51 | 1009.3 |
| 20260505020419 | 77 | 206 | 0.9 | 2.6 | 0.00 | 0.00 | 0.00 | 50 | 1009.3 |
| 20260505020319 | 77 | 0 | 0.9 | 1.7 | 0.00 | 0.00 | 0.00 | 50 | 1009.3 |
| 20260505020219 | 77 | 0 | 0.0 | 0.9 | 0.00 | 0.00 | 0.00 | 50 | 1009.3 |
| 20260505020119 | 77 | 237 | 0.0 | 1.7 | 0.00 | 0.00 | 0.00 | 49 | 1009.3 |
| 20260505020019 | 77 | 0 | 0.0 | 0.0 | 0.00 | 0.00 | 0.00 | 49 | 1009.3 |
| 20260505015919 | 77 | 0 | 0.0 | 1.7 | 0.00 | 0.00 | 0.00 | 49 | 1009.3 |
| 20260505015819 | 77 | 219 | 1.7 | 3.5 | 0.00 | 0.00 | 0.00 | 49 | 1009.3 |
| 20260505015720 | 77 | 233 | 2.6 | 5.2 | 0.00 | 0.00 | 0.00 | 49 | 1009.3 |
| 20260505015620 | 77 | 233 | 2.6 | 3.5 | 0.00 | 0.00 | 0.00 | 48 | 1009.3 |
| 20260505015519 | 77 | 246 | 3.5 | 7.0 | 0.00 | 0.00 | 0.00 | 48 | 1009.3 |
| 20260505015419 | 77 | 216 | 0.9 | 3.5 | 0.00 | 0.00 | 0.00 | 47 | 1009.3 |
| 20260505014919 | 77 | 223 | 1.7 | 4.3 | 0.00 | 0.00 | 0.00 | 47 | 1009.2 |
| 20260505014820 | 78 | 281 | 1.7 | 3.5 | 0.00 | 0.00 | 0.00 | 47 | 1009.2 |
| 20260505014720 | 78 | 179 | 1.7 | 2.6 | 0.00 | 0.00 | 0.00 | 46 | 1009.2 |
| 20260505014619 | 78 | 0 | 1.7 | 3.5 | 0.00 | 0.00 | 0.00 | 46 | 1009.2 |
| 20260505014319 | 78 | 254 | 2.6 | 5.2 | 0.00 | 0.00 | 0.00 | 46 | 1009.2 |
| 20260505014219 | 78 | 0 | 0.0 | 1.7 | 0.00 | 0.00 | 0.00 | 46 | 1009.2 |
| 20260505014120 | 78 | 236 | 1.7 | 2.6 | 0.00 | 0.00 | 0.00 | 46 | 1009.2 |
| 20260505013719 | 78 | 213 | 1.7 | 2.6 | 0.00 | 0.00 | 0.00 | 46 | 1009.2 |
| 20260505013619 | 78 | 0 | 0.9 | 2.6 | 0.00 | 0.00 | 0.00 | 46 | 1009.2 |
| 20260505013519 | 78 | 269 | 0.9 | 2.6 | 0.00 | 0.00 | 0.00 | 46 | 1009.2 |
| 20260505013420 | 79 | 340 | 1.7 | 3.5 | 0.00 | 0.00 | 0.00 | 46 | 1009.3 |
| 20260505013320 | 79 | 232 | 2.6 | 3.5 | 0.00 | 0.00 | 0.00 | 46 | 1009.2 |
| 20260505013220 | 79 | 210 | 2.6 | 3.5 | 0.00 | 0.00 | 0.00 | 45 | 1009.3 |
| 20260505013020 | 79 | 215 | 2.6 | 3.5 | 0.00 | 0.00 | 0.00 | 45 | 1009.3 |
| 20260505012920 | 79 | 222 | 1.7 | 2.6 | 0.00 | 0.00 | 0.00 | 45 | 1009.2 |
| 20260505012620 | 79 | 280 | 0.9 | 2.6 | 0.00 | 0.00 | 0.00 | 44 | 1009.2 |
| 20260505012320 | 79 | 285 | 0.0 | 0.9 | 0.00 | 0.00 | 0.00 | 43 | 1009.2 |
| 20260505012220 | 79 | 0 | 0.0 | 0.0 | 0.00 | 0.00 | 0.00 | 43 | 1009.2 |
| 20260505012120 | 79 | 0 | 0.0 | 0.9 | 0.00 | 0.00 | 0.00 | 43 | 1009.2 |
| 20260505011820 | 79 | 0 | 0.9 | 1.7 | 0.00 | 0.00 | 0.00 | 43 | 1009.2 |
| 20260505011720 | 79 | 263 | 1.7 | 2.6 | 0.00 | 0.00 | 0.00 | 43 | 1009.2 |
| 20260505011620 | 79 | 215 | 2.6 | 4.3 | 0.00 | 0.00 | 0.00 | 43 | 1009.2 |
| 20260505011520 | 79 | 203 | 2.6 | 4.3 | 0.00 | 0.00 | 0.00 | 42 | 1009.2 |
| 20260505011420 | 79 | 211 | 2.6 | 4.3 | 0.00 | 0.00 | 0.00 | 41 | 1009.2 |
| 20260505011320 | 79 | 228 | 0.0 | 0.9 | 0.00 | 0.00 | 0.00 | 41 | 1009.2 |
| 20260505011220 | 79 | 0 | 0.0 | 0.9 | 0.00 | 0.00 | 0.00 | 41 | 1009.3 |
| 20260505011120 | 79 | 0 | 0.0 | 1.7 | 0.00 | 0.00 | 0.00 | 41 | 1009.3 |
| 20260505011019 | 80 | 288 | 1.7 | 3.5 | 0.00 | 0.00 | 0.00 | 40 | 1009.3 |
| 20260505010920 | 80 | 212 | 0.9 | 2.6 | 0.00 | 0.00 | 0.00 | 40 | 1009.3 |
| 20260505010820 | 80 | 227 | 1.7 | 4.3 | 0.00 | 0.00 | 0.00 | 39 | 1009.3 |
| 20260505010420 | 80 | 302 | 0.9 | 1.7 | 0.00 | 0.00 | 0.00 | 38 | 1009.3 |
| 20260505010320 | 80 | 339 | 0.0 | 0.9 | 0.00 | 0.00 | 0.00 | 38 | 1009.3 |
| 20260505010220 | 80 | 0 | 0.0 | 2.6 | 0.00 | 0.00 | 0.00 | 38 | 1009.3 |
| 20260505010120 | 80 | 226 | 0.9 | 2.6 | 0.00 | 0.00 | 0.00 | 38 | 1009.3 |
| 20260505010020 | 80 | 291 | 1.7 | 3.5 | 0.00 | 0.00 | 0.00 | 38 | 1009.3 |
| 20260505005920 | 80 | 0 | 0.9 | 2.6 | 0.00 | 0.00 | 0.00 | 37 | 1009.3 |
| 20260505005820 | 80 | 211 | 0.9 | 2.6 | 0.00 | 0.00 | 0.00 | 37 | 1009.3 |
| 20260505005720 | 79 | 350 | 0.9 | 3.5 | 0.00 | 0.00 | 0.00 | 38 | 1009.4 |
| 20260505005620 | 79 | 250 | 0.0 | 0.9 | 0.00 | 0.00 | 0.00 | 38 | 1009.3 |
| 20260505005520 | 79 | 305 | 0.9 | 1.7 | 0.00 | 0.00 | 0.00 | 38 | 1009.3 |
| 20260505005420 | 79 | 328 | 0.9 | 2.6 | 0.00 | 0.00 | 0.00 | 37 | 1009.4 |
| 20260505005320 | 79 | 212 | 1.7 | 4.3 | 0.00 | 0.00 | 0.00 | 37 | 1009.3 |
| 20260505005220 | 79 | 218 | 3.5 | 5.2 | 0.00 | 0.00 | 0.00 | 37 | 1009.3 |
| 20260505005120 | 79 | 216 | 0.9 | 3.5 | 0.00 | 0.00 | 0.00 | 37 | 1009.3 |
| 20260505005020 | 79 | 0 | 0.0 | 1.7 | 0.00 | 0.00 | 0.00 | 36 | 1009.3 |
| 20260505004920 | 79 | 233 | 1.7 | 3.5 | 0.00 | 0.00 | 0.00 | 36 | 1009.3 |
| 20260505004821 | 80 | 246 | 2.6 | 4.3 | 0.00 | 0.00 | 0.00 | 36 | 1009.3 |
| 20260505004721 | 80 | 207 | 2.6 | 4.3 | 0.00 | 0.00 | 0.00 | 36 | 1009.3 |
| 20260505004621 | 79 | 241 | 0.9 | 2.6 | 0.00 | 0.00 | 0.00 | 36 | 1009.3 |
| 20260505004520 | 79 | 316 | 0.9 | 2.6 | 0.00 | 0.00 | 0.00 | 36 | 1009.3 |
| 20260505004420 | 79 | 330 | 0.9 | 2.6 | 0.00 | 0.00 | 0.00 | 36 | 1009.3 |
| 20260505004320 | 79 | 352 | 1.7 | 4.3 | 0.00 | 0.00 | 0.00 | 36 | 1009.3 |
| 20260505004220 | 79 | 338 | 0.9 | 2.6 | 0.00 | 0.00 | 0.00 | 36 | 1009.3 |
| 20260505004120 | 79 | 301 | 0.9 | 2.6 | 0.00 | 0.00 | 0.00 | 36 | 1009.3 |
| 20260505004020 | 79 | 281 | 1.7 | 2.6 | 0.00 | 0.00 | 0.00 | 35 | 1009.3 |
| 20260505003920 | 79 | 347 | 0.9 | 3.5 | 0.00 | 0.00 | 0.00 | 36 | 1009.3 |
| 20260505003820 | 79 | 6 | 0.0 | 2.6 | 0.00 | 0.00 | 0.00 | 36 | 1009.3 |
| 20260505003521 | 79 | 314 | 0.0 | 1.7 | 0.00 | 0.00 | 0.00 | 36 | 1009.3 |
| 20260505003420 | 79 | 0 | 0.9 | 2.6 | 0.00 | 0.00 | 0.00 | 36 | 1009.3 |
| 20260505003321 | 79 | 316 | 1.7 | 5.2 | 0.00 | 0.00 | 0.00 | 37 | 1009.4 |
| 20260505003220 | 79 | 310 | 0.9 | 2.6 | 0.00 | 0.00 | 0.00 | 36 | 1009.3 |
| 20260505003120 | 79 | 0 | 0.9 | 1.7 | 0.00 | 0.00 | 0.00 | 36 | 1009.3 |
| 20260505003021 | 79 | 226 | 0.9 | 2.6 | 0.00 | 0.00 | 0.00 | 36 | 1009.3 |
| 20260505002721 | 79 | 352 | 1.7 | 4.3 | 0.00 | 0.00 | 0.00 | 37 | 1009.3 |
| 20260505002621 | 79 | 218 | 0.9 | 2.6 | 0.00 | 0.00 | 0.00 | 37 | 1009.2 |
| 20260505002521 | 79 | 356 | 1.7 | 2.6 | 0.00 | 0.00 | 0.00 | 37 | 1009.3 |
| 20260505002421 | 79 | 191 | 1.7 | 3.5 | 0.00 | 0.00 | 0.00 | 37 | 1009.3 |
| 20260505002320 | 79 | 210 | 1.7 | 3.5 | 0.00 | 0.00 | 0.00 | 37 | 1009.3 |
| 20260505002221 | 79 | 250 | 1.7 | 3.5 | 0.00 | 0.00 | 0.00 | 37 | 1009.2 |
| 20260505002120 | 79 | 199 | 0.9 | 2.6 | 0.00 | 0.00 | 0.00 | 37 | 1009.2 |
| 20260505001821 | 79 | 202 | 3.5 | 5.2 | 0.00 | 0.00 | 0.00 | 36 | 1009.2 |
| 20260505001521 | 79 | 206 | 1.7 | 3.5 | 0.00 | 0.00 | 0.00 | 36 | 1009.2 |
| 20260505001421 | 79 | 212 | 0.9 | 3.5 | 0.00 | 0.00 | 0.00 | 35 | 1009.2 |
| 20260505001321 | 79 | 313 | 0.9 | 3.5 | 0.00 | 0.00 | 0.00 | 35 | 1009.3 |
| 20260505001221 | 79 | 312 | 0.9 | 2.6 | 0.00 | 0.00 | 0.00 | 35 | 1009.2 |
| 20260505001121 | 79 | 322 | 0.9 | 2.6 | 0.00 | 0.00 | 0.00 | 35 | 1009.3 |
| 20260505000921 | 79 | 242 | 0.9 | 2.6 | 0.00 | 0.00 | 0.00 | 35 | 1009.2 |
| 20260505000821 | 79 | 9 | 1.7 | 3.5 | 0.00 | 0.00 | 0.00 | 35 | 1009.3 |
| 20260505000721 | 79 | 58 | 0.9 | 1.7 | 0.00 | 0.00 | 0.00 | 35 | 1009.3 |
| 20260505000621 | 79 | 0 | 0.9 | 1.7 | 0.00 | 0.00 | 0.00 | 35 | 1009.2 |
| 20260505000521 | 79 | 340 | 1.7 | 3.5 | 0.00 | 0.00 | 0.00 | 35 | 1009.2 |
| 20260505000421 | 79 | 253 | 2.6 | 4.3 | 0.00 | 0.00 | 0.00 | 35 | 1009.2 |
| 20260505000321 | 79 | 322 | 1.7 | 4.3 | 0.00 | 0.00 | 0.00 | 35 | 1009.3 |
| 20260505000222 | 79 | 227 | 2.6 | 5.2 | 0.00 | 0.00 | 0.00 | 35 | 1009.3 |
| 20260505000121 | 79 | 236 | 3.5 | 5.2 | 0.00 | 0.00 | 0.00 | 35 | 1009.3 |
| 20260505000021 | 79 | 0 | 0.0 | 1.7 | 0.00 | 0.00 | 0.00 | 36 | 1009.3 |
| 20260504235921 | 79 | 203 | 2.6 | 3.5 | 0.00 | 0.00 | 0.00 | 35 | 1009.3 |
| 20260504235821 | 79 | 218 | 0.0 | 2.6 | 0.00 | 0.00 | 0.00 | 35 | 1009.3 |
| 20260504235721 | 79 | 352 | 1.7 | 3.5 | 0.00 | 0.00 | 0.00 | 36 | 1009.4 |
| 20260504235621 | 79 | 236 | 0.9 | 3.5 | 0.00 | 0.00 | 0.00 | 36 | 1009.4 |
| 20260504235521 | 79 | 240 | 0.9 | 2.6 | 0.00 | 0.00 | 0.00 | 36 | 1009.4 |
| 20260504235421 | 79 | 251 | 2.6 | 5.2 | 0.00 | 0.00 | 0.00 | 36 | 1009.4 |
| 20260504235321 | 79 | 219 | 3.5 | 5.2 | 0.00 | 0.00 | 0.00 | 35 | 1009.3 |
| 20260504235221 | 79 | 184 | 0.9 | 3.5 | 0.00 | 0.00 | 0.00 | 36 | 1009.3 |
| 20260504234922 | 79 | 211 | 3.5 | 5.2 | 0.00 | 0.00 | 0.00 | 35 | 1009.3 |
| 20260504234822 | 79 | 217 | 2.6 | 4.3 | 0.00 | 0.00 | 0.00 | 35 | 1009.3 |
| 20260504234721 | 79 | 199 | 2.6 | 3.5 | 0.00 | 0.00 | 0.00 | 35 | 1009.3 |
| 20260504234622 | 79 | 216 | 1.7 | 3.5 | 0.00 | 0.00 | 0.00 | 35 | 1009.3 |
| 20260504234521 | 79 | 200 | 2.6 | 6.1 | 0.00 | 0.00 | 0.00 | 35 | 1009.3 |
| 20260504234221 | 79 | 215 | 0.9 | 2.6 | 0.00 | 0.00 | 0.00 | 36 | 1009.4 |
| 20260504234122 | 79 | 298 | 0.9 | 2.6 | 0.00 | 0.00 | 0.00 | 37 | 1009.4 |
| 20260504234021 | 79 | 337 | 1.7 | 3.5 | 0.00 | 0.00 | 0.00 | 37 | 1009.4 |
| 20260504233922 | 79 | 318 | 0.9 | 2.6 | 0.00 | 0.00 | 0.00 | 36 | 1009.4 |
| 20260504233621 | 79 | 0 | 0.9 | 3.5 | 0.00 | 0.00 | 0.00 | 36 | 1009.4 |
| 20260504233522 | 79 | 273 | 1.7 | 3.5 | 0.00 | 0.00 | 0.00 | 37 | 1009.4 |
| 20260504233422 | 79 | 225 | 0.0 | 2.6 | 0.00 | 0.00 | 0.00 | 37 | 1009.4 |
| 20260504233322 | 79 | 212 | 0.9 | 2.6 | 0.00 | 0.00 | 0.00 | 36 | 1009.4 |
| 20260504233222 | 79 | 203 | 1.7 | 5.2 | 0.00 | 0.00 | 0.00 | 36 | 1009.3 |
| 20260504233122 | 79 | 0 | 0.0 | 1.7 | 0.00 | 0.00 | 0.00 | 37 | 1009.4 |
| 20260504233021 | 79 | 305 | 0.9 | 2.6 | 0.00 | 0.00 | 0.00 | 36 | 1009.4 |
| 20260504232922 | 79 | 310 | 1.7 | 3.5 | 0.00 | 0.00 | 0.00 | 37 | 1009.4 |
| 20260504232824 | 79 | 263 | 0.9 | 1.7 | 0.00 | 0.00 | 0.00 | 36 | 1009.3 |
| 20260504232721 | 79 | 214 | 0.9 | 2.6 | 0.00 | 0.00 | 0.00 | 35 | 1009.3 |
| 20260504232621 | 79 | 252 | 2.6 | 4.3 | 0.00 | 0.00 | 0.00 | 35 | 1009.3 |
| 20260504232522 | 79 | 338 | 1.7 | 3.5 | 0.00 | 0.00 | 0.00 | 35 | 1009.3 |
| 20260504232221 | 79 | 0 | 1.7 | 2.6 | 0.00 | 0.00 | 0.00 | 36 | 1009.3 |
| 20260504232122 | 79 | 311 | 0.9 | 2.6 | 0.00 | 0.00 | 0.00 | 36 | 1009.4 |
| 20260504231922 | 79 | 326 | 1.7 | 2.6 | 0.00 | 0.00 | 0.00 | 36 | 1009.4 |
| 20260504231822 | 79 | 254 | 0.9 | 2.6 | 0.00 | 0.00 | 0.00 | 36 | 1009.3 |
| 20260504231722 | 79 | 326 | 0.9 | 1.7 | 0.00 | 0.00 | 0.00 | 36 | 1009.3 |
| 20260504231622 | 79 | 271 | 1.7 | 3.5 | 0.00 | 0.00 | 0.00 | 36 | 1009.4 |
| 20260504231522 | 79 | 308 | 1.7 | 2.6 | 0.00 | 0.00 | 0.00 | 36 | 1009.4 |
| 20260504231421 | 79 | 250 | 3.5 | 6.1 | 0.00 | 0.00 | 0.00 | 36 | 1009.3 |
| 20260504231322 | 79 | 229 | 2.6 | 4.3 | 0.00 | 0.00 | 0.00 | 36 | 1009.3 |
| 20260504231222 | 79 | 216 | 3.5 | 5.2 | 0.00 | 0.00 | 0.00 | 36 | 1009.3 |
| 20260504231022 | 79 | 218 | 1.7 | 4.3 | 0.00 | 0.00 | 0.00 | 36 | 1009.4 |
| 20260504230922 | 79 | 281 | 2.6 | 4.3 | 0.00 | 0.00 | 0.00 | 36 | 1009.4 |
| 20260504230822 | 79 | 359 | 0.0 | 0.9 | 0.00 | 0.00 | 0.00 | 35 | 1009.4 |
| 20260504230723 | 79 | 317 | 1.7 | 3.5 | 0.00 | 0.00 | 0.00 | 35 | 1009.4 |
| 20260504230622 | 79 | 238 | 2.6 | 3.5 | 0.00 | 0.00 | 0.00 | 35 | 1009.4 |
| 20260504230522 | 79 | 302 | 0.9 | 2.6 | 0.00 | 0.00 | 0.00 | 37 | 1009.5 |
| 20260504230422 | 79 | 299 | 0.9 | 2.6 | 0.00 | 0.00 | 0.00 | 36 | 1009.4 |
| 20260504230322 | 79 | 265 | 1.7 | 3.5 | 0.00 | 0.00 | 0.00 | 36 | 1009.5 |
| 20260504230222 | 79 | 233 | 2.6 | 5.2 | 0.00 | 0.00 | 0.00 | 36 | 1009.5 |
| 20260504230122 | 79 | 224 | 0.9 | 2.6 | 0.00 | 0.00 | 0.00 | 37 | 1009.5 |
| 20260504230022 | 79 | 284 | 1.7 | 2.6 | 0.00 | 0.00 | 0.00 | 36 | 1009.5 |
| 20260504225922 | 79 | 0 | 0.0 | 0.0 | 0.00 | 0.00 | 0.00 | 37 | 1009.5 |
| 20260504225822 | 79 | 73 | 0.9 | 1.7 | 0.00 | 0.00 | 0.00 | 36 | 1009.5 |
| 20260504225722 | 79 | 306 | 0.9 | 3.5 | 0.00 | 0.00 | 0.00 | 37 | 1009.6 |
| 20260504225222 | 78 | 0 | 1.7 | 3.5 | 0.00 | 0.00 | 0.00 | 38 | 1009.6 |
| 20260504225122 | 78 | 47 | 0.0 | 0.9 | 0.00 | 0.00 | 0.00 | 38 | 1009.6 |
| 20260504225022 | 78 | 0 | 0.0 | 0.9 | 0.00 | 0.00 | 0.00 | 37 | 1009.6 |
| 20260504224922 | 78 | 0 | 0.0 | 1.7 | 0.00 | 0.00 | 0.00 | 37 | 1009.6 |
| 20260504224823 | 78 | 260 | 0.9 | 1.7 | 0.00 | 0.00 | 0.00 | 36 | 1009.6 |
| 20260504224523 | 79 | 219 | 1.7 | 2.6 | 0.00 | 0.00 | 0.00 | 38 | 1009.7 |
| 20260504224423 | 79 | 220 | 2.6 | 4.3 | 0.00 | 0.00 | 0.00 | 38 | 1009.7 |
| 20260504224323 | 79 | 233 | 2.6 | 3.5 | 0.00 | 0.00 | 0.00 | 39 | 1009.7 |
| 20260504224223 | 79 | 238 | 2.6 | 4.3 | 0.00 | 0.00 | 0.00 | 39 | 1009.7 |
| 20260504224122 | 78 | 259 | 2.6 | 5.2 | 0.00 | 0.00 | 0.00 | 39 | 1009.8 |
| 20260504224023 | 78 | 257 | 1.7 | 2.6 | 0.00 | 0.00 | 0.00 | 39 | 1009.7 |
| 20260504223923 | 78 | 43 | 1.7 | 5.2 | 0.00 | 0.00 | 0.00 | 39 | 1009.7 |
| 20260504223823 | 78 | 352 | 0.0 | 1.7 | 0.00 | 0.00 | 0.00 | 40 | 1009.8 |
| 20260504223523 | 78 | 209 | 2.6 | 4.3 | 0.00 | 0.00 | 0.00 | 39 | 1009.7 |
| 20260504223423 | 78 | 223 | 1.7 | 3.5 | 0.00 | 0.00 | 0.00 | 39 | 1009.8 |
| 20260504223323 | 78 | 269 | 1.7 | 2.6 | 0.00 | 0.00 | 0.00 | 39 | 1009.8 |
| 20260504223223 | 78 | 225 | 1.7 | 3.5 | 0.00 | 0.00 | 0.00 | 39 | 1009.8 |
| 20260504223123 | 78 | 252 | 1.7 | 3.5 | 0.00 | 0.00 | 0.00 | 39 | 1009.8 |
| 20260504223023 | 78 | 271 | 1.7 | 4.3 | 0.00 | 0.00 | 0.00 | 39 | 1009.8 |
| 20260504222923 | 78 | 220 | 3.5 | 7.0 | 0.00 | 0.00 | 0.00 | 39 | 1009.8 |
| 20260504222823 | 78 | 226 | 1.7 | 4.3 | 0.00 | 0.00 | 0.00 | 40 | 1009.8 |
| 20260504222723 | 78 | 227 | 0.9 | 2.6 | 0.00 | 0.00 | 0.00 | 40 | 1009.8 |
| 20260504222622 | 78 | 0 | 0.9 | 2.6 | 0.00 | 0.00 | 0.00 | 40 | 1009.8 |
| 20260504222523 | 78 | 60 | 1.7 | 4.3 | 0.00 | 0.00 | 0.00 | 40 | 1009.8 |
| 20260504222423 | 78 | 263 | 2.6 | 4.3 | 0.00 | 0.00 | 0.00 | 40 | 1009.9 |
| 20260504222323 | 78 | 186 | 0.9 | 1.7 | 0.00 | 0.00 | 0.00 | 41 | 1009.8 |
| 20260504222023 | 78 | 224 | 4.3 | 6.1 | 0.00 | 0.00 | 0.00 | 41 | 1009.9 |
| 20260504221923 | 78 | 212 | 0.9 | 3.5 | 0.00 | 0.00 | 0.00 | 42 | 1009.9 |
| 20260504221823 | 78 | 276 | 0.0 | 1.7 | 0.00 | 0.00 | 0.00 | 41 | 1009.9 |
| 20260504221723 | 78 | 252 | 1.7 | 2.6 | 0.00 | 0.00 | 0.00 | 42 | 1009.9 |
| 20260504221623 | 78 | 231 | 0.0 | 1.7 | 0.00 | 0.00 | 0.00 | 42 | 1010.0 |
| 20260504221523 | 78 | 296 | 0.9 | 3.5 | 0.00 | 0.00 | 0.00 | 42 | 1010.0 |
| 20260504221423 | 78 | 238 | 0.0 | 1.7 | 0.00 | 0.00 | 0.00 | 42 | 1010.0 |
| 20260504221322 | 78 | 278 | 0.9 | 2.6 | 0.00 | 0.00 | 0.00 | 42 | 1010.0 |
| 20260504221223 | 78 | 0 | 0.9 | 1.7 | 0.00 | 0.00 | 0.00 | 42 | 1010.0 |
| 20260504221123 | 78 | 233 | 1.7 | 3.5 | 0.00 | 0.00 | 0.00 | 42 | 1010.0 |
| 20260504220923 | 78 | 0 | 0.9 | 2.6 | 0.00 | 0.00 | 0.00 | 42 | 1010.0 |
| 20260504220823 | 78 | 17 | 0.9 | 2.6 | 0.00 | 0.00 | 0.00 | 43 | 1010.0 |
| 20260504220723 | 78 | 300 | 0.9 | 1.7 | 0.00 | 0.00 | 0.00 | 44 | 1010.1 |
| 20260504220523 | 78 | 0 | 0.0 | 2.6 | 0.00 | 0.00 | 0.00 | 43 | 1010.0 |
| 20260504220423 | 78 | 278 | 0.9 | 2.6 | 0.00 | 0.00 | 0.00 | 43 | 1010.1 |
| 20260504220323 | 78 | 286 | 0.9 | 2.6 | 0.00 | 0.00 | 0.00 | 43 | 1010.1 |
| 20260504220123 | 78 | 268 | 0.9 | 2.6 | 0.00 | 0.00 | 0.00 | 43 | 1010.1 |
| 20260504220023 | 78 | 225 | 2.6 | 6.1 | 0.00 | 0.00 | 0.00 | 42 | 1010.0 |
| 20260504215923 | 78 | 53 | 1.7 | 4.3 | 0.00 | 0.00 | 0.00 | 42 | 1010.0 |
| 20260504215823 | 78 | 8 | 1.7 | 4.3 | 0.00 | 0.00 | 0.00 | 42 | 1010.1 |
| 20260504215723 | 78 | 229 | 1.7 | 3.5 | 0.00 | 0.00 | 0.00 | 44 | 1010.1 |
| 20260504215423 | 78 | 280 | 0.9 | 1.7 | 0.00 | 0.00 | 0.00 | 41 | 1010.0 |
| 20260504215324 | 78 | 226 | 0.9 | 2.6 | 0.00 | 0.00 | 0.00 | 41 | 1010.0 |
| 20260504215224 | 78 | 275 | 2.6 | 5.2 | 0.00 | 0.00 | 0.00 | 40 | 1010.0 |
| 20260504215123 | 78 | 217 | 4.3 | 5.2 | 0.00 | 0.00 | 0.00 | 40 | 1010.0 |
| 20260504214824 | 78 | 224 | 1.7 | 3.5 | 0.00 | 0.00 | 0.00 | 40 | 1010.1 |
| 20260504214724 | 78 | 209 | 2.6 | 4.3 | 0.00 | 0.00 | 0.00 | 41 | 1010.0 |
| 20260504214424 | 78 | 225 | 2.6 | 5.2 | 0.00 | 0.00 | 0.00 | 41 | 1010.1 |
| 20260504214324 | 78 | 236 | 2.6 | 6.1 | 0.00 | 0.00 | 0.00 | 40 | 1010.1 |
| 20260504214224 | 78 | 231 | 3.5 | 4.3 | 0.00 | 0.00 | 0.00 | 40 | 1010.1 |
| 20260504214124 | 78 | 220 | 1.7 | 4.3 | 0.00 | 0.00 | 0.00 | 40 | 1010.1 |
| 20260504214024 | 78 | 227 | 2.6 | 3.5 | 0.00 | 0.00 | 0.00 | 40 | 1010.1 |
| 20260504213924 | 78 | 237 | 1.7 | 4.3 | 0.00 | 0.00 | 0.00 | 40 | 1010.1 |
| 20260504213724 | 78 | 333 | 0.9 | 3.5 | 0.00 | 0.00 | 0.00 | 40 | 1010.0 |
| 20260504213524 | 78 | 211 | 1.7 | 5.2 | 0.00 | 0.00 | 0.00 | 41 | 1010.1 |
| 20260504213423 | 78 | 266 | 0.9 | 1.7 | 0.00 | 0.00 | 0.00 | 41 | 1010.1 |
| 20260504213323 | 78 | 254 | 3.5 | 6.1 | 0.00 | 0.00 | 0.00 | 40 | 1010.1 |
| 20260504213224 | 78 | 204 | 3.5 | 6.1 | 0.00 | 0.00 | 0.00 | 40 | 1010.1 |
| 20260504212924 | 78 | 239 | 0.9 | 1.7 | 0.00 | 0.00 | 0.00 | 40 | 1010.1 |
| 20260504212624 | 77 | 224 | 1.7 | 4.3 | 0.00 | 0.00 | 0.00 | 41 | 1010.1 |
| 20260504212524 | 77 | 226 | 2.6 | 5.2 | 0.00 | 0.00 | 0.00 | 40 | 1010.1 |
| 20260504212424 | 77 | 216 | 2.6 | 4.3 | 0.00 | 0.00 | 0.00 | 40 | 1010.1 |
| 20260504212324 | 77 | 222 | 2.6 | 3.5 | 0.00 | 0.00 | 0.00 | 41 | 1010.2 |
| 20260504212224 | 77 | 212 | 0.9 | 1.7 | 0.00 | 0.00 | 0.00 | 41 | 1010.2 |
| 20260504212124 | 77 | 245 | 2.6 | 5.2 | 0.00 | 0.00 | 0.00 | 40 | 1010.2 |
| 20260504212024 | 77 | 228 | 2.6 | 4.3 | 0.00 | 0.00 | 0.00 | 41 | 1010.1 |
| 20260504211924 | 77 | 285 | 0.9 | 3.5 | 0.00 | 0.00 | 0.00 | 40 | 1010.1 |
| 20260504211524 | 77 | 216 | 3.5 | 5.2 | 0.00 | 0.00 | 0.00 | 41 | 1010.1 |
| 20260504211424 | 77 | 232 | 2.6 | 4.3 | 0.00 | 0.00 | 0.00 | 41 | 1010.1 |
| 20260504211327 | 77 | 218 | 1.7 | 3.5 | 0.00 | 0.00 | 0.00 | 41 | 1010.1 |
| 20260504210924 | 77 | 224 | 3.5 | 5.2 | 0.00 | 0.00 | 0.00 | 41 | 1010.2 |
| 20260504210724 | 77 | 180 | 2.6 | 5.2 | 0.00 | 0.00 | 0.00 | 41 | 1010.2 |
| 20260504210624 | 77 | 201 | 3.5 | 5.2 | 0.00 | 0.00 | 0.00 | 41 | 1010.1 |
| 20260504210124 | 77 | 262 | 1.7 | 2.6 | 0.00 | 0.00 | 0.00 | 41 | 1010.2 |
| 20260504205824 | 77 | 204 | 3.5 | 5.2 | 0.00 | 0.00 | 0.00 | 41 | 1010.2 |
| 20260504205724 | 77 | 220 | 1.7 | 4.3 | 0.00 | 0.00 | 0.00 | 41 | 1010.2 |
| 20260504205625 | 77 | 216 | 2.6 | 5.2 | 0.00 | 0.00 | 0.00 | 41 | 1010.2 |
| 20260504205524 | 77 | 291 | 3.5 | 4.3 | 0.00 | 0.00 | 0.00 | 41 | 1010.2 |
| 20260504205424 | 77 | 261 | 1.7 | 2.6 | 0.00 | 0.00 | 0.00 | 41 | 1010.3 |
| 20260504205324 | 77 | 300 | 1.7 | 2.6 | 0.00 | 0.00 | 0.00 | 41 | 1010.3 |
| 20260504205224 | 77 | 14 | 0.9 | 1.7 | 0.00 | 0.00 | 0.00 | 42 | 1010.3 |
| 20260504205124 | 77 | 0 | 0.0 | 0.9 | 0.00 | 0.00 | 0.00 | 42 | 1010.3 |
| 20260504205024 | 76 | 236 | 1.7 | 2.6 | 0.00 | 0.00 | 0.00 | 42 | 1010.3 |
| 20260504204925 | 76 | 324 | 0.9 | 2.6 | 0.00 | 0.00 | 0.00 | 42 | 1010.3 |
| 20260504204824 | 76 | 288 | 0.9 | 2.6 | 0.00 | 0.00 | 0.00 | 42 | 1010.3 |
| 20260504204724 | 76 | 321 | 0.0 | 1.7 | 0.00 | 0.00 | 0.00 | 43 | 1010.3 |
| 20260504204624 | 76 | 0 | 0.9 | 1.7 | 0.00 | 0.00 | 0.00 | 43 | 1010.3 |
| 20260504204525 | 76 | 253 | 1.7 | 3.5 | 0.00 | 0.00 | 0.00 | 42 | 1010.3 |
| 20260504204424 | 76 | 205 | 2.6 | 4.3 | 0.00 | 0.00 | 0.00 | 42 | 1010.3 |
| 20260504204325 | 76 | 223 | 3.5 | 5.2 | 0.00 | 0.00 | 0.00 | 42 | 1010.3 |
| 20260504204225 | 76 | 210 | 3.5 | 6.1 | 0.00 | 0.00 | 0.00 | 42 | 1010.3 |
| 20260504204125 | 76 | 215 | 0.9 | 3.5 | 0.00 | 0.00 | 0.00 | 43 | 1010.3 |
| 20260504204024 | 76 | 263 | 0.9 | 2.6 | 0.00 | 0.00 | 0.00 | 43 | 1010.3 |
| 20260504203724 | 76 | 228 | 0.9 | 2.6 | 0.00 | 0.00 | 0.00 | 43 | 1010.3 |
| 20260504203625 | 76 | 218 | 2.6 | 4.3 | 0.00 | 0.00 | 0.00 | 43 | 1010.3 |
| 20260504203325 | 76 | 218 | 2.6 | 3.5 | 0.00 | 0.00 | 0.00 | 43 | 1010.3 |
| 20260504203225 | 76 | 246 | 2.6 | 6.1 | 0.00 | 0.00 | 0.00 | 43 | 1010.3 |
| 20260504203125 | 76 | 275 | 2.6 | 3.5 | 0.00 | 0.00 | 0.00 | 44 | 1010.3 |
| 20260504203024 | 76 | 269 | 0.9 | 2.6 | 0.00 | 0.00 | 0.00 | 45 | 1010.3 |
| 20260504202525 | 76 | 219 | 0.0 | 1.7 | 0.00 | 0.00 | 0.00 | 44 | 1010.3 |
| 20260504202424 | 76 | 292 | 1.7 | 3.5 | 0.00 | 0.00 | 0.00 | 44 | 1010.3 |
| 20260504202325 | 76 | 283 | 2.6 | 3.5 | 0.00 | 0.00 | 0.00 | 43 | 1010.3 |
| 20260504202225 | 76 | 274 | 2.6 | 4.3 | 0.00 | 0.00 | 0.00 | 43 | 1010.3 |
| 20260504201925 | 76 | 217 | 2.6 | 3.5 | 0.00 | 0.00 | 0.00 | 44 | 1010.2 |
| 20260504201825 | 76 | 223 | 1.7 | 2.6 | 0.00 | 0.00 | 0.00 | 44 | 1010.2 |
| 20260504201425 | 75 | 0 | 0.0 | 0.9 | 0.00 | 0.00 | 0.00 | 43 | 1010.3 |
| 20260504201325 | 75 | 321 | 0.9 | 1.7 | 0.00 | 0.00 | 0.00 | 43 | 1010.3 |
| 20260504201225 | 75 | 302 | 2.6 | 4.3 | 0.00 | 0.00 | 0.00 | 43 | 1010.3 |
| 20260504201125 | 75 | 257 | 2.6 | 6.1 | 0.00 | 0.00 | 0.00 | 43 | 1010.3 |
| 20260504201025 | 75 | 73 | 2.6 | 3.5 | 0.00 | 0.00 | 0.00 | 43 | 1010.3 |
| 20260504200725 | 75 | 221 | 2.6 | 4.3 | 0.00 | 0.00 | 0.00 | 42 | 1010.4 |
| 20260504200627 | 75 | 220 | 3.5 | 5.2 | 0.00 | 0.00 | 0.00 | 42 | 1010.4 |
| 20260504200526 | 75 | 211 | 4.3 | 7.0 | 0.00 | 0.00 | 0.00 | 42 | 1010.3 |
| 20260504200426 | 75 | 213 | 3.5 | 4.3 | 0.00 | 0.00 | 0.00 | 42 | 1010.3 |
| 20260504200325 | 75 | 220 | 1.7 | 6.1 | 0.00 | 0.00 | 0.00 | 42 | 1010.4 |
| 20260504200225 | 75 | 201 | 3.5 | 6.1 | 0.00 | 0.00 | 0.00 | 43 | 1010.4 |
| 20260504200125 | 75 | 210 | 2.6 | 4.3 | 0.00 | 0.00 | 0.00 | 42 | 1010.4 |
| 20260504195825 | 75 | 205 | 2.6 | 4.3 | 0.00 | 0.00 | 0.00 | 43 | 1010.5 |
| 20260504195725 | 75 | 208 | 1.7 | 4.3 | 0.00 | 0.00 | 0.00 | 43 | 1010.5 |
| 20260504195625 | 75 | 245 | 2.6 | 4.3 | 0.00 | 0.00 | 0.00 | 43 | 1010.5 |
| 20260504195425 | 75 | 0 | 0.9 | 3.5 | 0.00 | 0.00 | 0.00 | 42 | 1010.5 |
| 20260504195326 | 75 | 224 | 2.6 | 4.3 | 0.00 | 0.00 | 0.00 | 42 | 1010.5 |
| 20260504195225 | 75 | 228 | 0.9 | 2.6 | 0.00 | 0.00 | 0.00 | 43 | 1010.5 |
| 20260504195125 | 75 | 0 | 0.0 | 1.7 | 0.00 | 0.00 | 0.00 | 44 | 1010.5 |
| 20260504195025 | 75 | 0 | 0.9 | 3.5 | 0.00 | 0.00 | 0.00 | 43 | 1010.5 |
| 20260504194925 | 75 | 220 | 1.7 | 3.5 | 0.00 | 0.00 | 0.00 | 43 | 1010.5 |
| 20260504194825 | 75 | 0 | 0.9 | 3.5 | 0.00 | 0.00 | 0.00 | 43 | 1010.5 |
| 20260504194725 | 75 | 207 | 0.9 | 3.5 | 0.00 | 0.00 | 0.00 | 43 | 1010.5 |
| 20260504194225 | 75 | 215 | 0.9 | 1.7 | 0.00 | 0.00 | 0.00 | 43 | 1010.5 |
| 20260504194126 | 75 | 297 | 1.7 | 2.6 | 0.00 | 0.00 | 0.00 | 44 | 1010.6 |
| 20260504194025 | 75 | 230 | 2.6 | 5.2 | 0.00 | 0.00 | 0.00 | 44 | 1010.6 |
| 20260504193926 | 75 | 270 | 3.5 | 6.1 | 0.00 | 0.00 | 0.00 | 43 | 1010.6 |
| 20260504193726 | 75 | 273 | 0.9 | 3.5 | 0.00 | 0.00 | 0.00 | 44 | 1010.6 |
| 20260504193625 | 75 | 302 | 0.9 | 1.7 | 0.00 | 0.00 | 0.00 | 43 | 1010.6 |
| 20260504193526 | 75 | 341 | 0.9 | 3.5 | 0.00 | 0.00 | 0.00 | 44 | 1010.6 |
| 20260504193425 | 75 | 281 | 0.0 | 0.9 | 0.00 | 0.00 | 0.00 | 43 | 1010.6 |
| 20260504193325 | 74 | 0 | 0.9 | 1.7 | 0.00 | 0.00 | 0.00 | 44 | 1010.6 |
| 20260504193228 | 74 | 332 | 0.0 | 1.7 | 0.00 | 0.00 | 0.00 | 44 | 1010.6 |
| 20260504193125 | 74 | 77 | 2.6 | 6.1 | 0.00 | 0.00 | 0.00 | 45 | 1010.6 |
| 20260504193026 | 74 | 77 | 2.6 | 5.2 | 0.00 | 0.00 | 0.00 | 44 | 1010.6 |
| 20260504192926 | 74 | 113 | 0.0 | 2.6 | 0.00 | 0.00 | 0.00 | 44 | 1010.6 |
| 20260504192825 | 74 | 0 | 0.0 | 1.7 | 0.00 | 0.00 | 0.00 | 44 | 1010.6 |
| 20260504192726 | 74 | 259 | 0.9 | 1.7 | 0.00 | 0.00 | 0.00 | 44 | 1010.7 |
| 20260504192426 | 74 | 322 | 0.9 | 2.6 | 0.00 | 0.00 | 0.00 | 44 | 1010.7 |
| 20260504192326 | 74 | 275 | 0.9 | 1.7 | 0.00 | 0.00 | 0.00 | 44 | 1010.7 |
| 20260504192225 | 74 | 232 | 0.9 | 2.6 | 0.00 | 0.00 | 0.00 | 44 | 1010.7 |
| 20260504192126 | 74 | 285 | 0.0 | 2.6 | 0.00 | 0.00 | 0.00 | 44 | 1010.7 |
| 20260504192025 | 74 | 236 | 1.7 | 2.6 | 0.00 | 0.00 | 0.00 | 44 | 1010.7 |
| 20260504191926 | 75 | 310 | 1.7 | 2.6 | 0.00 | 0.00 | 0.00 | 44 | 1010.7 |
| 20260504191826 | 75 | 274 | 2.6 | 4.3 | 0.00 | 0.00 | 0.00 | 44 | 1010.7 |
| 20260504191726 | 75 | 217 | 3.5 | 5.2 | 0.00 | 0.00 | 0.00 | 44 | 1010.7 |
| 20260504191626 | 75 | 0 | 1.7 | 3.5 | 0.00 | 0.00 | 0.00 | 44 | 1010.7 |
| 20260504191526 | 75 | 220 | 0.0 | 3.5 | 0.00 | 0.00 | 0.00 | 44 | 1010.7 |
| 20260504191426 | 75 | 217 | 0.0 | 1.7 | 0.00 | 0.00 | 0.00 | 44 | 1010.7 |
| 20260504191326 | 75 | 223 | 1.7 | 4.3 | 0.00 | 0.00 | 0.00 | 44 | 1010.7 |
| 20260504191226 | 75 | 0 | 0.0 | 0.0 | 0.00 | 0.00 | 0.00 | 45 | 1010.7 |
| 20260504191126 | 75 | 0 | 0.9 | 3.5 | 0.00 | 0.00 | 0.00 | 45 | 1010.7 |
| 20260504191025 | 75 | 0 | 0.9 | 2.6 | 0.00 | 0.00 | 0.00 | 45 | 1010.7 |
| 20260504190926 | 75 | 219 | 2.6 | 4.3 | 0.00 | 0.00 | 0.00 | 44 | 1010.7 |
| 20260504190526 | 74 | 32 | 1.7 | 5.2 | 0.00 | 0.00 | 0.00 | 44 | 1010.7 |
| 20260504190426 | 74 | 0 | 0.0 | 1.7 | 0.00 | 0.00 | 0.00 | 44 | 1010.7 |
| 20260504190126 | 74 | 0 | 0.0 | 1.7 | 0.00 | 0.00 | 0.00 | 44 | 1010.7 |
| 20260504190026 | 73 | 80 | 2.6 | 5.2 | 0.00 | 0.00 | 0.00 | 44 | 1010.7 |
| 20260504185926 | 73 | 113 | 0.9 | 3.5 | 0.00 | 0.00 | 0.00 | 44 | 1010.7 |
| 20260504185826 | 73 | 36 | 1.7 | 2.6 | 0.00 | 0.00 | 0.00 | 44 | 1010.7 |
| 20260504185727 | 73 | 330 | 1.7 | 3.5 | 0.00 | 0.00 | 0.00 | 44 | 1010.8 |
| 20260504185626 | 73 | 0 | 0.9 | 2.6 | 0.00 | 0.00 | 0.00 | 44 | 1010.8 |
| 20260504185526 | 73 | 241 | 1.7 | 3.5 | 0.00 | 0.00 | 0.00 | 44 | 1010.8 |
| 20260504185326 | 73 | 0 | 0.0 | 0.9 | 0.00 | 0.00 | 0.00 | 43 | 1010.8 |
| 20260504185228 | 73 | 0 | 0.9 | 3.5 | 0.00 | 0.00 | 0.00 | 43 | 1010.8 |
| 20260504185127 | 73 | 253 | 0.9 | 2.6 | 0.00 | 0.00 | 0.00 | 43 | 1010.8 |
| 20260504184826 | 73 | 261 | 1.7 | 3.5 | 0.00 | 0.00 | 0.00 | 44 | 1010.8 |
| 20260504184727 | 73 | 208 | 3.5 | 4.3 | 0.00 | 0.00 | 0.00 | 44 | 1010.8 |
| 20260504184627 | 73 | 201 | 1.7 | 4.3 | 0.00 | 0.00 | 0.00 | 45 | 1010.8 |
| 20260504184526 | 73 | 219 | 1.7 | 4.3 | 0.00 | 0.00 | 0.00 | 45 | 1010.8 |
| 20260504184427 | 73 | 212 | 3.5 | 5.2 | 0.00 | 0.00 | 0.00 | 45 | 1010.8 |
| 20260504184327 | 73 | 209 | 3.5 | 5.2 | 0.00 | 0.00 | 0.00 | 44 | 1010.8 |
| 20260504184227 | 73 | 217 | 1.7 | 3.5 | 0.00 | 0.00 | 0.00 | 45 | 1010.8 |
| 20260504183927 | 72 | 0 | 0.0 | 0.0 | 0.00 | 0.00 | 0.00 | 46 | 1010.9 |
| 20260504183826 | 72 | 0 | 0.0 | 0.9 | 0.00 | 0.00 | 0.00 | 46 | 1010.9 |
| 20260504183727 | 72 | 288 | 0.9 | 1.7 | 0.00 | 0.00 | 0.00 | 46 | 1010.9 |
| 20260504183627 | 72 | 5 | 0.9 | 1.7 | 0.00 | 0.00 | 0.00 | 46 | 1010.9 |
| 20260504183327 | 72 | 225 | 1.7 | 3.5 | 0.00 | 0.00 | 0.00 | 44 | 1010.9 |
| 20260504183227 | 72 | 215 | 2.6 | 2.6 | 0.00 | 0.00 | 0.00 | 43 | 1011.0 |
| 20260504183126 | 72 | 217 | 2.6 | 3.5 | 0.00 | 0.00 | 0.00 | 43 | 1011.0 |
| 20260504183027 | 72 | 209 | 1.7 | 2.6 | 0.00 | 0.00 | 0.00 | 44 | 1011.0 |
| 20260504182927 | 72 | 0 | 0.9 | 2.6 | 0.00 | 0.00 | 0.00 | 45 | 1011.0 |
| 20260504182827 | 72 | 293 | 0.9 | 3.5 | 0.00 | 0.00 | 0.00 | 45 | 1011.0 |
| 20260504182726 | 72 | 0 | 0.9 | 2.6 | 0.00 | 0.00 | 0.00 | 45 | 1011.0 |
| 20260504182627 | 72 | 225 | 3.5 | 4.3 | 0.00 | 0.00 | 0.00 | 45 | 1011.0 |
| 20260504182527 | 72 | 217 | 3.5 | 5.2 | 0.00 | 0.00 | 0.00 | 45 | 1011.0 |
| 20260504182427 | 72 | 212 | 1.7 | 3.5 | 0.00 | 0.00 | 0.00 | 45 | 1011.0 |
| 20260504182327 | 72 | 210 | 1.7 | 3.5 | 0.00 | 0.00 | 0.00 | 44 | 1011.0 |
| 20260504182227 | 72 | 250 | 3.5 | 6.1 | 0.00 | 0.00 | 0.00 | 44 | 1011.0 |
| 20260504182127 | 72 | 203 | 1.7 | 4.3 | 0.00 | 0.00 | 0.00 | 44 | 1011.0 |
| 20260504182027 | 72 | 212 | 1.7 | 3.5 | 0.00 | 0.00 | 0.00 | 44 | 1011.0 |
| 20260504181927 | 72 | 220 | 0.9 | 1.7 | 0.00 | 0.00 | 0.00 | 44 | 1011.0 |
| 20260504181826 | 72 | 290 | 1.7 | 2.6 | 0.00 | 0.00 | 0.00 | 44 | 1011.0 |
| 20260504181727 | 72 | 243 | 0.9 | 2.6 | 0.00 | 0.00 | 0.00 | 45 | 1011.0 |
| 20260504181627 | 72 | 0 | 0.0 | 1.7 | 0.00 | 0.00 | 0.00 | 46 | 1011.0 |
| 20260504181527 | 71 | 328 | 0.9 | 1.7 | 0.00 | 0.00 | 0.00 | 47 | 1011.1 |
| 20260504181427 | 71 | 294 | 1.7 | 2.6 | 0.00 | 0.00 | 0.00 | 48 | 1011.1 |
| 20260504181128 | 71 | 219 | 2.6 | 3.5 | 0.00 | 0.00 | 0.00 | 48 | 1011.1 |
| 20260504181027 | 71 | 199 | 2.6 | 3.5 | 0.00 | 0.00 | 0.00 | 48 | 1011.1 |
| 20260504180927 | 71 | 235 | 2.6 | 4.3 | 0.00 | 0.00 | 0.00 | 48 | 1011.1 |
| 20260504180827 | 71 | 215 | 0.9 | 3.5 | 0.00 | 0.00 | 0.00 | 48 | 1011.1 |
| 20260504180728 | 71 | 317 | 2.6 | 4.3 | 0.00 | 0.00 | 0.00 | 47 | 1011.1 |
| 20260504180627 | 71 | 209 | 1.7 | 4.3 | 0.00 | 0.00 | 0.00 | 49 | 1011.1 |
| 20260504180127 | 71 | 0 | 0.9 | 2.6 | 0.00 | 0.00 | 0.00 | 49 | 1011.0 |
| 20260504175827 | 71 | 221 | 1.7 | 3.5 | 0.00 | 0.00 | 0.00 | 50 | 1011.0 |
| 20260504175728 | 71 | 202 | 3.5 | 4.3 | 0.00 | 0.00 | 0.00 | 49 | 1011.0 |
| 20260504175628 | 71 | 194 | 2.6 | 3.5 | 0.00 | 0.00 | 0.00 | 48 | 1011.0 |
| 20260504175528 | 71 | 225 | 0.9 | 1.7 | 0.00 | 0.00 | 0.00 | 47 | 1011.0 |
| 20260504175427 | 71 | 211 | 1.7 | 3.5 | 0.00 | 0.00 | 0.00 | 48 | 1011.0 |
| 20260504175328 | 71 | 223 | 1.7 | 2.6 | 0.00 | 0.00 | 0.00 | 48 | 1011.0 |
| 20260504175228 | 71 | 210 | 2.6 | 4.3 | 0.00 | 0.00 | 0.00 | 48 | 1011.0 |
| 20260504175130 | 71 | 207 | 1.7 | 4.3 | 0.00 | 0.00 | 0.00 | 49 | 1011.0 |
| 20260504175029 | 71 | 260 | 0.9 | 1.7 | 0.00 | 0.00 | 0.00 | 48 | 1011.0 |
| 20260504174827 | 70 | 205 | 1.7 | 3.5 | 0.00 | 0.00 | 0.00 | 49 | 1011.0 |
| 20260504174727 | 70 | 0 | 0.0 | 1.7 | 0.00 | 0.00 | 0.00 | 50 | 1011.0 |
| 20260504174627 | 70 | 269 | 0.9 | 2.6 | 0.00 | 0.00 | 0.00 | 50 | 1011.0 |
| 20260504174527 | 70 | 274 | 0.9 | 1.7 | 0.00 | 0.00 | 0.00 | 49 | 1011.0 |
| 20260504174428 | 70 | 223 | 2.6 | 3.5 | 0.00 | 0.00 | 0.00 | 49 | 1011.0 |
| 20260504174328 | 70 | 207 | 1.7 | 3.5 | 0.00 | 0.00 | 0.00 | 49 | 1011.0 |
| 20260504174228 | 70 | 215 | 0.9 | 1.7 | 0.00 | 0.00 | 0.00 | 49 | 1011.0 |
| 20260504173928 | 70 | 218 | 0.9 | 2.6 | 0.00 | 0.00 | 0.00 | 48 | 1011.0 |
| 20260504173828 | 70 | 276 | 0.9 | 1.7 | 0.00 | 0.00 | 0.00 | 48 | 1011.0 |
| 20260504173727 | 70 | 254 | 1.7 | 1.7 | 0.00 | 0.00 | 0.00 | 48 | 1011.0 |
| 20260504173628 | 70 | 223 | 1.7 | 3.5 | 0.00 | 0.00 | 0.00 | 48 | 1011.0 |
| 20260504173528 | 70 | 208 | 2.6 | 3.5 | 0.00 | 0.00 | 0.00 | 47 | 1011.0 |
| 20260504173428 | 70 | 212 | 3.5 | 5.2 | 0.00 | 0.00 | 0.00 | 47 | 1011.0 |
| 20260504173227 | 70 | 270 | 1.7 | 3.5 | 0.00 | 0.00 | 0.00 | 46 | 1011.0 |
| 20260504173128 | 70 | 207 | 1.7 | 3.5 | 0.00 | 0.00 | 0.00 | 47 | 1011.0 |
| 20260504172828 | 70 | 215 | 0.9 | 1.7 | 0.00 | 0.00 | 0.00 | 47 | 1011.0 |
| 20260504172728 | 70 | 214 | 0.9 | 2.6 | 0.00 | 0.00 | 0.00 | 47 | 1011.0 |
| 20260504172527 | 69 | 115 | 0.9 | 3.5 | 0.00 | 0.00 | 0.00 | 49 | 1011.0 |
| 20260504172428 | 69 | 64 | 1.7 | 4.3 | 0.00 | 0.00 | 0.00 | 49 | 1011.0 |
| 20260504172328 | 69 | 0 | 0.0 | 0.9 | 0.00 | 0.00 | 0.00 | 47 | 1011.0 |
| 20260504172227 | 69 | 208 | 0.9 | 2.6 | 0.00 | 0.00 | 0.00 | 47 | 1011.0 |
| 20260504172128 | 69 | 218 | 1.7 | 2.6 | 0.00 | 0.00 | 0.00 | 47 | 1011.0 |
| 20260504172028 | 69 | 203 | 0.9 | 2.6 | 0.00 | 0.00 | 0.00 | 47 | 1011.0 |
| 20260504171728 | 69 | 214 | 2.6 | 3.5 | 0.00 | 0.00 | 0.00 | 47 | 1011.0 |
| 20260504171430 | 69 | 205 | 0.9 | 1.7 | 0.00 | 0.00 | 0.00 | 47 | 1011.0 |
| 20260504171128 | 69 | 220 | 1.7 | 3.5 | 0.00 | 0.00 | 0.00 | 47 | 1011.0 |
| 20260504171028 | 69 | 0 | 0.0 | 0.9 | 0.00 | 0.00 | 0.00 | 48 | 1011.0 |
| 20260504170928 | 69 | 209 | 0.9 | 1.7 | 0.00 | 0.00 | 0.00 | 47 | 1011.0 |
| 20260504170828 | 69 | 0 | 0.0 | 0.0 | 0.00 | 0.00 | 0.00 | 48 | 1011.0 |
| 20260504170528 | 69 | 0 | 0.9 | 1.7 | 0.00 | 0.00 | 0.00 | 48 | 1011.0 |
| 20260504170428 | 69 | 212 | 1.7 | 2.6 | 0.00 | 0.00 | 0.00 | 48 | 1011.0 |
| 20260504170328 | 69 | 212 | 2.6 | 3.5 | 0.00 | 0.00 | 0.00 | 47 | 1011.0 |
| 20260504170228 | 69 | 206 | 1.7 | 1.7 | 0.00 | 0.00 | 0.00 | 48 | 1011.0 |
| 20260504170128 | 69 | 213 | 0.0 | 0.9 | 0.00 | 0.00 | 0.00 | 48 | 1011.0 |
| 20260504160429 | 67 | 222 | 1.7 | 2.6 | 0.00 | 0.00 | 0.00 | 49 | 1010.8 |
| 20260504160329 | 67 | 210 | 0.9 | 2.6 | 0.00 | 0.00 | 0.00 | 51 | 1010.8 |
| 20260504160230 | 67 | 0 | 0.0 | 0.9 | 0.00 | 0.00 | 0.00 | 51 | 1010.8 |
| 20260504160129 | 67 | 253 | 0.9 | 0.9 | 0.00 | 0.00 | 0.00 | 51 | 1010.8 |
| 20260504151130 | 64 | 0 | 0.0 | 1.7 | 0.00 | 0.00 | 0.00 | 58 | 1010.6 |
| 20260504150830 | 64 | 48 | 0.0 | 1.7 | 0.00 | 0.00 | 0.00 | 59 | 1010.6 |
| 20260504150730 | 64 | 63 | 0.0 | 1.7 | 0.00 | 0.00 | 0.00 | 59 | 1010.6 |
| 20260504150631 | 64 | 93 | 0.0 | 0.9 | 0.00 | 0.00 | 0.00 | 59 | 1010.6 |
| 20260504150530 | 63 | 93 | 0.0 | 0.9 | 0.00 | 0.00 | 0.00 | 59 | 1010.6 |
| 20260504150430 | 63 | 110 | 0.0 | 1.7 | 0.00 | 0.00 | 0.00 | 58 | 1010.6 |
| 20260504150330 | 63 | 58 | 0.9 | 1.7 | 0.00 | 0.00 | 0.00 | 59 | 1010.6 |
| 20260504150230 | 63 | 0 | 0.0 | 0.9 | 0.00 | 0.00 | 0.00 | 60 | 1010.6 |
| 20260504150130 | 63 | 0 | 0.0 | 1.7 | 0.00 | 0.00 | 0.00 | 60 | 1010.6 |
| 20260504141331 | 52 | 0 | 0.0 | 0.0 | 0.00 | 0.00 | 0.00 | 87 | 1010.2 |
| 20260504141231 | 52 | 0 | 0.0 | 0.0 | 0.00 | 0.00 | 0.00 | 87 | 1010.2 |
| 20260504141131 | 52 | 0 | 0.0 | 0.0 | 0.00 | 0.00 | 0.00 | 87 | 1010.2 |
| 20260504141031 | 51 | 0 | 0.0 | 0.0 | 0.00 | 0.00 | 0.00 | 87 | 1010.1 |
| 20260504140731 | 51 | 0 | 0.0 | 0.0 | 0.00 | 0.00 | 0.00 | 88 | 1010.1 |
| 20260504140631 | 51 | 0 | 0.0 | 0.0 | 0.00 | 0.00 | 0.00 | 88 | 1010.1 |
| 20260504140331 | 51 | 0 | 0.0 | 0.0 | 0.00 | 0.00 | 0.00 | 87 | 1010.1 |
| 20260504140231 | 51 | 0 | 0.0 | 0.0 | 0.00 | 0.00 | 0.00 | 87 | 1010.1 |
| 20260504130732 | 53 | 0 | 0.0 | 0.0 | 0.00 | 0.00 | 0.00 | 80 | 1009.5 |
| 20260504130632 | 53 | 0 | 0.0 | 0.0 | 0.00 | 0.00 | 0.00 | 79 | 1009.5 |
| 20260504130332 | 53 | 0 | 0.0 | 0.0 | 0.00 | 0.00 | 0.00 | 78 | 1009.5 |
| 20260504120233 | 53 | 0 | 0.0 | 0.9 | 0.00 | 0.00 | 0.00 | 78 | 1009.5 |
| 20260504110234 | 53 | 0 | 0.0 | 0.0 | 0.00 | 0.00 | 0.00 | 80 | 1009.5 |
| 20260504110134 | 53 | 0 | 0.0 | 0.0 | 0.00 | 0.00 | 0.00 | 79 | 1009.5 |
| 20260504100535 | 55 | 131 | 0.0 | 1.7 | 0.00 | 0.00 | 0.00 | 75 | 1009.4 |
| 20260504100335 | 55 | 129 | 0.9 | 0.9 | 0.00 | 0.00 | 0.00 | 75 | 1009.4 |
| 20260504100235 | 55 | 118 | 0.0 | 1.7 | 0.00 | 0.00 | 0.00 | 75 | 1009.4 |
| 20260504100135 | 55 | 99 | 0.0 | 0.9 | 0.00 | 0.00 | 0.00 | 75 | 1009.4 |
| 20260504081937 | 56 | 0 | 0.9 | 1.7 | 0.00 | 0.00 | 0.00 | 77 | 1009.4 |
| 20260504081837 | 56 | 97 | 0.9 | 1.7 | 0.00 | 0.00 | 0.00 | 77 | 1009.4 |
| 20260504081737 | 56 | 139 | 1.7 | 2.6 | 0.00 | 0.00 | 0.00 | 77 | 1009.4 |
| 20260504081637 | 56 | 140 | 1.7 | 2.6 | 0.00 | 0.00 | 0.00 | 78 | 1009.4 |
| 20260504081337 | 56 | 130 | 0.9 | 2.6 | 0.00 | 0.00 | 0.00 | 79 | 1009.5 |
| 20260504081237 | 56 | 86 | 0.0 | 1.7 | 0.00 | 0.00 | 0.00 | 79 | 1009.5 |
| 20260504081137 | 56 | 61 | 0.0 | 0.9 | 0.00 | 0.00 | 0.00 | 79 | 1009.5 |
| 20260504081037 | 56 | 0 | 0.0 | 0.0 | 0.00 | 0.00 | 0.00 | 79 | 1009.5 |
| 20260504080937 | 57 | 0 | 0.0 | 0.0 | 0.00 | 0.00 | 0.00 | 79 | 1009.5 |
| 20260504080837 | 57 | 0 | 0.0 | 0.0 | 0.00 | 0.00 | 0.00 | 78 | 1009.6 |
| 20260504080737 | 57 | 0 | 0.0 | 0.0 | 0.00 | 0.00 | 0.00 | 78 | 1009.6 |
| 20260504080637 | 57 | 0 | 0.0 | 0.0 | 0.00 | 0.00 | 0.00 | 78 | 1009.6 |
| 20260504080537 | 57 | 0 | 0.0 | 0.0 | 0.00 | 0.00 | 0.00 | 79 | 1009.6 |
| 20260504080437 | 57 | 0 | 0.0 | 0.0 | 0.00 | 0.00 | 0.00 | 79 | 1009.5 |
| 20260504080137 | 58 | 0 | 0.0 | 0.0 | 0.00 | 0.00 | 0.00 | 78 | 1009.5 |
| 20260504070138 | 58 | 0 | 0.0 | 0.0 | 0.00 | 0.00 | 0.00 | 81 | 1009.5 |